Regional Weather Roundup
Issued by NWS Boston, MA

Current Version | Previous Version | Text Only | Print | Product List | Glossary Off
Versions: 1 2 3 4 5 6 7 8 9 10 11 12 13 14 15 16 17 18 19 20 21 22 23 24 25 26 27
000 ASUS41 KBOX 190110 RWRBOX REGIONAL WEATHER ROUNDUP NATIONAL WEATHER SERVICE TAUNTON MA 800 PM EST SUN FEB 18 2018 NOTE: "FAIR" INDICATES FEW OR NO CLOUDS BELOW 12,000 FEET WITH NO SIGNIFICANT WEATHER AND/OR OBSTRUCTIONS TO VISIBILITY. MAZALL-190200- EASTERN MASSACHUSETTS CITY SKY/WX TMP DP RH WIND PRES REMARKS BOSTON FAIR 38 22 52 N7 30.46R BEVERLY FAIR 34 22 61 N3 30.45R LAWRENCE FAIR 35 22 58 CALM 30.47R BEDFORD FAIR 31 22 69 W5 30.44R WCI 26 BLUE HILL N/A 33 22 63 NW8 30.42R WCI 26 NORWOOD FAIR 32 23 69 CALM 30.45R MARSHFIELD FAIR 30 28 93 NW5 30.45R WCI 25 PLYMOUTH FAIR 29 25 85 CALM 30.45R TAUNTON FAIR 30 26 85 CALM 30.46R NEW BEDFORD FAIR 33 26 75 W5 30.46R WCI 29 $$ MAZALL-190200- CAPE COD AND THE ISLANDS CITY SKY/WX TMP DP RH WIND PRES REMARKS FALMOUTH FAIR 28 25 86 CALM 30.47 HYANNIS FAIR 29 26 89 CALM 30.45R CHATHAM FAIR 31 28 89 CALM 30.47R PROVINCETOWN FAIR 28 25 88 CALM 30.46R NANTUCKET FAIR 32 29 88 S5 30.47R WCI 27 MARTHAS VNYRD FAIR N/A N/A N/A W6 30.46R $$ MAZALL-190200- CENTRAL AND WESTERN MASSACHUSETTS CITY SKY/WX TMP DP RH WIND PRES REMARKS WORCESTER FAIR 29 19 66 W6 30.42R WCI 23 FITCHBURG FAIR 29 22 75 CALM 30.45R ORANGE FAIR 31 21 66 W3 30.45R SPRINGFIELD PTCLDY 33 20 59 NW3 30.46R WESTFIELD FAIR 28 22 78 CALM 30.47R NORTH ADAMS FAIR 21 17 84 CALM 30.46R PITTSFIELD FAIR 28 16 60 SW3 30.41R $$ RIZALL-190200- RHODE ISLAND CITY SKY/WX TMP DP RH WIND PRES REMARKS PROVIDENCE NOT AVBL NEWPORT FAIR 37 25 61 NW6 30.46R BLOCK ISLAND FAIR 37 25 61 NW8 30.48R WCI 31 SMITHFIELD FAIR 33 22 63 W5 30.46R WCI 29 WESTERLY FAIR 36 24 62 NW5 30.48R $$ CTZALL-190200- CONNECTICUT CITY SKY/WX TMP DP RH WIND PRES REMARKS BRADLEY INTL FAIR 30 21 69 CALM 30.48R HARTFORD FAIR 34 23 64 CALM 30.49R BRIDGEPORT FAIR 38 26 62 N3 30.47R DANBURY FAIR 29 23 78 SW3 30.47R GROTON FAIR 36 23 59 N5 30.48R NEW HAVEN FAIR 31 24 75 CALM 30.48R CHESTER FAIR 34 21 60 CALM 30.47R MERIDEN FAIR 31 24 75 CALM 30.48R WILLIMANTIC FAIR 34 21 59 N6 30.48R WCI 29 OXFORD FAIR 31 23 72 CALM 30.46R $$ MEZ002-015-021-024-NHZ003-005-008-011-012-014-VTZ005-008-190200- NORTHERN NEW ENGLAND CITY SKY/WX TMP DP RH WIND PRES REMARKS PORTLAND ME FAIR 29 20 69 SE5 30.44R WCI 24 BANGOR ME FAIR 32 19 58 W3 30.41R CONCORD NH FAIR 27 21 78 SE3 30.44R MANCHESTER NH FAIR 31 21 66 CALM 30.43R NASHUA NH FAIR 30 23 75 NW6 30.45R WCI 24 PORTSMOUTH NH PTCLDY 31 19 60 CALM 30.43R JAFFREY NH FAIR 24 21 88 CALM 30.41R KEENE NH MOCLDY 27 20 75 CALM 30.44R BURLINGTON VT MOCLDY 34 22 61 S6 30.42R WCI 29 MT. WASHINGTON BLWGSNOW 7 7 100 W45 N/A VSB 0 WCI -20 $$ NYZ052-076-190200- EASTERN NEW YORK CITY SKY/WX TMP DP RH WIND PRES REMARKS ALBANY MOCLDY 29 20 69 CALM 30.48R NEW YORK CITY MOCLDY 40 25 55 N3 30.47R $$ ANZALL-190200- MARINE OBSERVATIONS STATION/POSITION TIME TEMP WIND PRES VSBY WAVE AIR SEA DIR/SP/G HT/PER (UTC) (F) (DEG/KT/KT) (MB) (MI) (FT/S) BOSTON BUOY 2350 39 39 190/ 2/ 4 1029.8 2/ 7 BUZZARDS BAY 0000 39 280/ 11/ 12 1031.0R NANTUCKET SOUND 2350 38 39 CALM / 2 1030.3 1/ 7 MASS BAY-STELLWA 0004 39 39 1029.6R 3/ 6 ISLE OF SHOALS 0000 38 310/ 10/ 11 1030.1R S OF BLOCK IS 0043 38 N/A 4/ 8 $$ ......................KEY......................... SKY/WX - SKY CONDITION/PRESENT WEATHER TMP - TEMPERATURE IN FAHRENHEIT DWPT - DEWPOINT IN FAHRENHEIT RH - RELATIVE HUMIDITY IN PERCENT WIND - DIRECTION AND SPEED IN MPH PRES - MEAN SEA LEVEL PRESSURE IN INCHES OF HG WCI - WIND CHILL INDEX VSB - VISIBILITY IN MILES HX - HEAT INDEX TC - TEMPERATURE IN CELSIUS VRB - VARIABLE WIND DIRECTION N/A - NOT AVAILABLE

USA.gov is the U.S. government's official web portal to all federal, state and local government web resources and services.